Regional Weather Roundup
Issued by NWS

Home | Current Version | Previous Version | Text Only | Print | Product List | Glossary Off
Versions: 1 2 3 4 5 6 7 8 9 10 11 12 13 14 15 16 17 18 19 20 21 22 23 24 25 26 27 28 29 30 31 32 33 34 35 36 37 38 39 40 41 42 43 44 45 46 47 48 49 50

000
ASUS43 KOAX 172302
RWRNE

WEATHER ROUNDUP FOR NEBRASKA
NATIONAL WEATHER SERVICE OMAHA NE
600 PM CDT FRI APR 17 2015

NOTES: SATELLITE DATA IS BEING USED TO AUGMENT CLOUD COVER ABOVE
       12000 FEET.
       "FAIR" INDICATES FEW OR NO CLOUDS BELOW 12,000 FEET WITH NO
       SIGNIFICANT WEATHER AND/OR OBSTRUCTIONS TO VISIBILITY.

  * THESE STATIONS DO NOT REPORT WEATHER SUCH AS RAIN...SNOW OR FOG.

NEZ001>004-019>022-054>056-180000-
NEBRASKA PANHANDLE

CITY           SKY/WX    TMP DP  RH WIND       PRES   REMARKS
SCOTTSBLUFF    LGT RAIN  48  47  96 NE28G36   30.01F FOG
ALLIANCE       LGT RAIN  48  47  96 NE17      30.03F FOG
CHADRON        LGT RAIN  47  43  86 NE16      30.10S
SIDNEY         TSTM      47  42  83 S10G20    30.00R
$$

NEZ057>060-069>072-079>082-180000-
SOUTHWEST NEBRASKA

CITY           SKY/WX    TMP DP  RH WIND       PRES   REMARKS
NORTH PLATTE   CLOUDY    62  53  72 E15       29.99F
IMPERIAL       PTSUNNY   62  50  64 E16       29.94F
LEXINGTON      MOSUNNY   65  59  80 E12       29.98S
MCCOOK         MOSUNNY   69  51  52 E14       29.94F
$$

NEZ005>010-023>029-035>040-094-180000-
NORTH CENTRAL NEBRASKA

CITY           SKY/WX    TMP DP  RH WIND       PRES   REMARKS
VALENTINE      LGT RAIN  55  52  89 NE8       30.09S
AINSWORTH      CLOUDY    56  54  94 NE14      30.07F
BROKEN BOW     LGT RAIN  61  56  83 NE12      30.01F
ORD            LGT RAIN  64  57  78 NE9       30.01F
$$

NEZ041-046>049-061>064-073>077-083>087-180000-
SOUTH CENTRAL NEBRASKA

CITY           SKY/WX    TMP DP  RH WIND       PRES   REMARKS
GRAND ISLAND   CLOUDY    67  54  63 E8        29.99F
HASTINGS       PTSUNNY   68  55  63 E13G21    29.98S
KEARNEY *      PTSUNNY   63  57  82 NE14      29.99F
YORK           PTSUNNY   68  54  60 SE13      29.99S
$$

NEZ011>018-030>034-042>045-180000-
NORTHEAST NEBRASKA

CITY           SKY/WX    TMP DP  RH WIND       PRES   REMARKS
BLAIR          PTSUNNY   74  49  40 E7        29.98S
COLUMBUS *     PTSUNNY   73  52  46 E10       30.01S
FREMONT        CLOUDY    75  50  41 E5        29.99F
TEKAMAH        CLOUDY    77  49  37 E8        29.98
$$

NEZ050>053-065>068-078-088>093-180000-
SOUTHEAST NEBRASKA

CITY           SKY/WX    TMP DP  RH WIND       PRES   REMARKS
LINCOLN        CLOUDY    72  54  53 E8        29.98F
OMAHA EPPLEY   PTSUNNY   76  52  43 SE8       29.98S
FALLS CITY     CLOUDY    73  53  49 E5        29.96R
NEBRASKA CITY  CLOUDY    72  47  41 SE7       29.98S
PLATTSMOUTH    CLOUDY    74  48  40 SE8       29.98S
$$

NEZ044-045-051>053-067-180000-
OMAHA AREA

CITY           SKY/WX    TMP DP  RH WIND       PRES   REMARKS
OMAHA EPPLEY   PTSUNNY   76  52  43 SE8       29.98S
BLAIR          PTSUNNY   74  49  40 E7        29.98S
FREMONT        CLOUDY    75  50  41 E5        29.99F
OFFUTT AFB     PTSUNNY   73  54  50 E5        29.97S
PLATTSMOUTH    CLOUDY    74  48  40 SE8       29.98S
$$



USA.gov is the U.S. government's official web portal to all federal, state and local government web resources and services.